Time,TemperatureF,DewpointF,PressureIn,WindDirection,WindDirectionDegrees,WindSpeedMPH,WindSpeedGustMPH,Humidity,HourlyPrecipIn,Conditions,Clouds,dailyrainin,SoftwareType,DateUTC
2013-04-28 00:00:00,8.0,-14.0,-100.00,ENE,59,5.0,9.0,35,0.00,,,0.00,,2013-04-28 08:00:00,
2013-04-28 00:32:00,8.0,-14.0,-100.00,ENE,59,5.0,9.0,35,0.00,,,0.00,,2013-04-28 08:32:00,
2013-04-28 00:42:00,8.0,-14.0,-100.00,ENE,59,5.0,9.0,35,0.00,,,0.00,,2013-04-28 08:42:00,
2013-04-28 00:52:00,8.0,-14.0,-100.00,ENE,59,5.0,9.0,35,0.00,,,0.00,,2013-04-28 08:52:00,
2013-04-28 01:00:00,7.0,-14.0,-100.00,ENE,62,4.0,8.0,37,0.00,,,0.00,,2013-04-28 09:00:00,
2013-04-28 01:33:00,7.0,-14.0,-100.00,ENE,62,4.0,8.0,37,0.00,,,0.00,,2013-04-28 09:33:00,
2013-04-28 01:42:00,7.0,-14.0,-100.00,ENE,62,4.0,8.0,37,0.00,,,0.00,,2013-04-28 09:42:00,
2013-04-28 01:53:00,7.0,-14.0,-100.00,ENE,62,4.0,8.0,37,0.00,,,0.00,,2013-04-28 09:53:00,
2013-04-28 02:00:00,6.0,-14.0,-100.00,ENE,57,4.0,7.0,38,0.00,,,0.00,,2013-04-28 10:00:00,
2013-04-28 02:32:00,6.0,-14.0,-100.00,ENE,57,4.0,7.0,38,0.00,,,0.00,,2013-04-28 10:32:00,
2013-04-28 02:42:00,6.0,-14.0,-100.00,ENE,57,4.0,7.0,38,0.00,,,0.00,,2013-04-28 10:42:00,
2013-04-28 02:52:00,6.0,-14.0,-100.00,ENE,57,4.0,7.0,38,0.00,,,0.00,,2013-04-28 10:52:00,
2013-04-28 03:00:00,7.0,-15.0,-100.00,ENE,61,2.0,6.0,35,0.00,,,0.00,,2013-04-28 11:00:00,
2013-04-28 03:32:00,7.0,-15.0,-100.00,ENE,61,2.0,6.0,35,0.00,,,0.00,,2013-04-28 11:32:00,
2013-04-28 03:42:00,7.0,-15.0,-100.00,ENE,61,2.0,6.0,35,0.00,,,0.00,,2013-04-28 11:42:00,
2013-04-28 03:52:00,7.0,-15.0,-100.00,ENE,61,2.0,6.0,35,0.00,,,0.00,,2013-04-28 11:52:00,
2013-04-28 04:00:00,7.0,-15.0,-100.00,ENE,69,2.0,4.0,36,0.00,,,0.00,,2013-04-28 12:00:00,
2013-04-28 04:32:00,7.0,-15.0,-100.00,ENE,69,2.0,4.0,36,0.00,,,0.00,,2013-04-28 12:32:00,
2013-04-28 04:42:00,7.0,-15.0,-100.00,ENE,69,2.0,4.0,36,0.00,,,0.00,,2013-04-28 12:42:00,
2013-04-28 04:52:00,7.0,-15.0,-100.00,ENE,69,2.0,4.0,36,0.00,,,0.00,,2013-04-28 12:52:00,
2013-04-28 05:00:00,7.0,-15.0,-100.00,East,93,2.0,5.0,36,0.00,,,0.00,,2013-04-28 13:00:00,
2013-04-28 05:32:00,7.0,-15.0,-100.00,East,93,2.0,5.0,36,0.00,,,0.00,,2013-04-28 13:32:00,
2013-04-28 05:42:00,7.0,-15.0,-100.00,East,93,2.0,5.0,36,0.00,,,0.00,,2013-04-28 13:42:00,
2013-04-28 05:52:00,7.0,-15.0,-100.00,East,93,2.0,5.0,36,0.00,,,0.00,,2013-04-28 13:52:00,
2013-04-28 06:00:00,8.0,-15.0,-100.00,SE,138,1.0,5.0,34,0.00,,,0.00,,2013-04-28 14:00:00,
2013-04-28 06:32:00,8.0,-15.0,-100.00,SE,138,1.0,5.0,34,0.00,,,0.00,,2013-04-28 14:32:00,
2013-04-28 06:42:00,8.0,-15.0,-100.00,SE,138,1.0,5.0,34,0.00,,,0.00,,2013-04-28 14:42:00,
2013-04-28 06:52:00,8.0,-15.0,-100.00,SE,138,1.0,5.0,34,0.00,,,0.00,,2013-04-28 14:52:00,
2013-04-28 07:00:00,10.0,-14.0,-100.00,SW,221,1.0,4.0,32,0.00,,,0.00,,2013-04-28 15:00:00,
2013-04-28 07:33:00,10.0,-14.0,-100.00,SW,221,1.0,4.0,32,0.00,,,0.00,,2013-04-28 15:33:00,
2013-04-28 07:42:00,10.0,-14.0,-100.00,SW,221,1.0,4.0,32,0.00,,,0.00,,2013-04-28 15:42:00,
2013-04-28 07:53:00,10.0,-14.0,-100.00,SW,221,1.0,4.0,32,0.00,,,0.00,,2013-04-28 15:53:00,
2013-04-28 08:00:00,14.0,-13.0,-100.00,SW,231,3.0,6.0,29,0.00,,,0.00,,2013-04-28 16:00:00,
2013-04-28 08:33:00,14.0,-13.0,-100.00,SW,231,3.0,6.0,29,0.00,,,0.00,,2013-04-28 16:33:00,
2013-04-28 08:43:00,14.0,-13.0,-100.00,SW,231,3.0,6.0,29,0.00,,,0.00,,2013-04-28 16:43:00,
2013-04-28 08:52:00,14.0,-13.0,-100.00,SW,231,3.0,6.0,29,0.00,,,0.00,,2013-04-28 16:52:00,
2013-04-28 09:00:00,17.0,-11.0,-100.00,WSW,239,4.0,10.0,28,0.00,,,0.00,,2013-04-28 17:00:00,
2013-04-28 09:32:00,17.0,-11.0,-100.00,WSW,239,4.0,10.0,28,0.00,,,0.00,,2013-04-28 17:32:00,
2013-04-28 09:43:00,17.0,-11.0,-100.00,WSW,239,4.0,10.0,28,0.00,,,0.00,,2013-04-28 17:43:00,
2013-04-28 09:52:00,17.0,-11.0,-100.00,WSW,239,4.0,10.0,28,0.00,,,0.00,,2013-04-28 17:52:00,
2013-04-28 10:00:00,20.0,-9.0,-100.00,WSW,238,4.0,11.0,27,0.00,,,0.00,,2013-04-28 18:00:00,
2013-04-28 10:32:00,20.0,-9.0,-100.00,WSW,238,4.0,11.0,27,0.00,,,0.00,,2013-04-28 18:32:00,
2013-04-28 10:42:00,20.0,-9.0,-100.00,WSW,238,4.0,11.0,27,0.00,,,0.00,,2013-04-28 18:42:00,
2013-04-28 10:52:00,20.0,-9.0,-100.00,WSW,238,4.0,11.0,27,0.00,,,0.00,,2013-04-28 18:52:00,
2013-04-28 11:00:00,22.0,-8.0,-100.00,WSW,237,5.0,10.0,26,0.00,,,0.00,,2013-04-28 19:00:00,
2013-04-28 11:32:00,22.0,-8.0,-100.00,WSW,237,5.0,10.0,26,0.00,,,0.00,,2013-04-28 19:32:00,
2013-04-28 11:42:00,22.0,-8.0,-100.00,WSW,237,5.0,10.0,26,0.00,,,0.00,,2013-04-28 19:42:00,
2013-04-28 11:52:00,22.0,-8.0,-100.00,WSW,237,5.0,10.0,26,0.00,,,0.00,,2013-04-28 19:52:00,
2013-04-28 12:00:00,27.0,-4.0,-100.00,SSW,213,6.0,12.0,26,0.00,,,0.00,,2013-04-28 20:00:00,
2013-04-28 12:33:00,27.0,-4.0,-100.00,SSW,213,6.0,12.0,26,0.00,,,0.00,,2013-04-28 20:33:00,
2013-04-28 12:42:00,27.0,-4.0,-100.00,SSW,213,6.0,12.0,26,0.00,,,0.00,,2013-04-28 20:42:00,
2013-04-28 12:52:00,27.0,-4.0,-100.00,SSW,213,6.0,12.0,26,0.00,,,0.00,,2013-04-28 20:52:00,
2013-04-28 13:00:00,27.0,-2.0,-100.00,SSW,212,4.0,10.0,28,0.00,,,0.00,,2013-04-28 21:00:00,
2013-04-28 13:33:00,27.0,-2.0,-100.00,SSW,212,4.0,10.0,28,0.00,,,0.00,,2013-04-28 21:33:00,
2013-04-28 13:42:00,27.0,-2.0,-100.00,SSW,212,4.0,10.0,28,0.00,,,0.00,,2013-04-28 21:42:00,
2013-04-28 13:53:00,27.0,-2.0,-100.00,SSW,212,4.0,10.0,28,0.00,,,0.00,,2013-04-28 21:53:00,
2013-04-28 14:00:00,31.0,3.0,-100.00,WSW,250,7.0,15.0,30,0.00,,,0.00,,2013-04-28 22:00:00,
2013-04-28 14:34:00,31.0,3.0,-100.00,WSW,250,7.0,15.0,30,0.00,,,0.00,,2013-04-28 22:34:00,
2013-04-28 14:42:00,31.0,3.0,-100.00,WSW,250,7.0,15.0,30,0.00,,,0.00,,2013-04-28 22:42:00,
2013-04-28 14:52:00,31.0,3.0,-100.00,WSW,250,7.0,15.0,30,0.00,,,0.00,,2013-04-28 22:52:00,
2013-04-28 15:00:00,30.0,4.0,-100.00,WSW,249,8.0,16.0,33,0.00,,,0.00,,2013-04-28 23:00:00,
2013-04-28 15:32:00,30.0,4.0,-100.00,WSW,249,8.0,16.0,33,0.00,,,0.00,,2013-04-28 23:32:00,
2013-04-28 15:42:00,30.0,4.0,-100.00,WSW,249,8.0,16.0,33,0.00,,,0.00,,2013-04-28 23:42:00,
2013-04-28 15:52:00,30.0,4.0,-100.00,WSW,249,8.0,16.0,33,0.00,,,0.00,,2013-04-28 23:52:00,
2013-04-28 16:00:00,30.0,6.0,-100.00,WSW,250,6.0,16.0,36,0.00,,,0.00,,2013-04-29 00:00:00,
2013-04-28 16:32:00,30.0,6.0,-100.00,WSW,250,6.0,16.0,36,0.00,,,0.00,,2013-04-29 00:32:00,
2013-04-28 16:42:00,30.0,6.0,-100.00,WSW,250,6.0,16.0,36,0.00,,,0.00,,2013-04-29 00:42:00,
2013-04-28 16:52:00,30.0,6.0,-100.00,WSW,250,6.0,16.0,36,0.00,,,0.00,,2013-04-29 00:52:00,
2013-04-28 17:00:00,32.0,8.0,-100.00,SW,231,8.0,16.0,36,0.00,,,0.00,,2013-04-29 01:00:00,
2013-04-28 17:32:00,32.0,8.0,-100.00,SW,231,8.0,16.0,36,0.00,,,0.00,,2013-04-29 01:32:00,
2013-04-28 17:42:00,32.0,8.0,-100.00,SW,231,8.0,16.0,36,0.00,,,0.00,,2013-04-29 01:42:00,
2013-04-28 17:52:00,32.0,8.0,-100.00,SW,231,8.0,16.0,36,0.00,,,0.00,,2013-04-29 01:52:00,
2013-04-28 18:00:00,32.0,9.0,-100.00,WSW,250,5.0,16.0,38,0.00,,,0.00,,2013-04-29 02:00:00,
2013-04-28 18:32:00,32.0,9.0,-100.00,WSW,250,5.0,16.0,38,0.00,,,0.00,,2013-04-29 02:32:00,
2013-04-28 18:42:00,32.0,9.0,-100.00,WSW,250,5.0,16.0,38,0.00,,,0.00,,2013-04-29 02:42:00,
2013-04-28 18:52:00,32.0,9.0,-100.00,WSW,250,5.0,16.0,38,0.00,,,0.00,,2013-04-29 02:52:00,
2013-04-28 19:00:00,29.0,7.0,-100.00,West,260,8.0,15.0,40,0.00,,,0.00,,2013-04-29 03:00:00,
2013-04-28 19:33:00,29.0,7.0,-100.00,West,260,8.0,15.0,40,0.00,,,0.00,,2013-04-29 03:33:00,
2013-04-28 19:43:00,29.0,7.0,-100.00,West,260,8.0,15.0,40,0.00,,,0.00,,2013-04-29 03:43:00,
2013-04-28 19:53:00,29.0,7.0,-100.00,West,260,8.0,15.0,40,0.00,,,0.00,,2013-04-29 03:53:00,
2013-04-28 20:00:00,28.0,7.0,-100.00,West,269,10.0,18.0,41,0.00,,,0.00,,2013-04-29 04:00:00,
2013-04-28 20:33:00,28.0,7.0,-100.00,West,269,10.0,18.0,41,0.00,,,0.00,,2013-04-29 04:33:00,
2013-04-28 20:43:00,28.0,7.0,-100.00,West,269,10.0,18.0,41,0.00,,,0.00,,2013-04-29 04:43:00,
2013-04-28 20:52:00,28.0,7.0,-100.00,West,269,10.0,18.0,41,0.00,,,0.00,,2013-04-29 04:52:00,
2013-04-28 21:00:00,26.0,7.0,-100.00,West,270,7.0,16.0,45,0.00,,,0.00,,2013-04-29 05:00:00,
2013-04-28 21:32:00,26.0,7.0,-100.00,West,270,7.0,16.0,45,0.00,,,0.00,,2013-04-29 05:32:00,
2013-04-28 21:42:00,26.0,7.0,-100.00,West,270,7.0,16.0,45,0.00,,,0.00,,2013-04-29 05:42:00,
2013-04-28 21:52:00,26.0,7.0,-100.00,West,270,7.0,16.0,45,0.00,,,0.00,,2013-04-29 05:52:00,
2013-04-28 22:00:00,24.0,8.0,-100.00,WSW,257,4.0,13.0,50,0.00,,,-99.99,,2013-04-29 06:00:00,
2013-04-28 22:32:00,24.0,8.0,-100.00,WSW,257,4.0,13.0,50,0.00,,,-99.99,,2013-04-29 06:32:00,
2013-04-28 22:42:00,24.0,8.0,-100.00,WSW,257,4.0,13.0,50,0.00,,,-99.99,,2013-04-29 06:42:00,
2013-04-28 22:52:00,24.0,8.0,-100.00,WSW,257,4.0,13.0,50,0.00,,,-99.99,,2013-04-29 06:52:00,
2013-04-28 23:00:00,22.0,7.0,-100.00,West,261,1.0,13.0,53,0.00,,,0.00,,2013-04-29 07:00:00,
2013-04-28 23:32:00,22.0,7.0,-100.00,West,261,1.0,13.0,53,0.00,,,0.00,,2013-04-29 07:32:00,
2013-04-28 23:42:00,22.0,7.0,-100.00,West,261,1.0,13.0,53,0.00,,,0.00,,2013-04-29 07:42:00,
2013-04-28 23:52:00,22.0,7.0,-100.00,West,261,1.0,13.0,53,0.00,,,0.00,,2013-04-29 07:52:00,